HST
1 20580U 90037B   24102.61945783  .00005171  00000-0  24750-3 0  9991
2 20580  28.4690  70.7935 0002529  30.7005 329.3735 15.16665693666918
ISS (ZARYA)
1 25544U 98067A   24103.41988057  .00013578  00000-0  24444-3 0  9997
2 25544  51.6402 281.4944 0004721  62.3602  20.3545 15.50116232448343
CXO
1 25867U 99040B   24104.39900763  .00000859  00000-0  00000-0 0  9990
2 25867  39.7933 160.1482 8951194 291.8037   0.1094  0.37811186 14322